LTG25MD SBGR-SBRJ

Flight info

Callsign LTG25MD
Flight time 0h 37m
Altitude 21000
Route NIBRU UZ171 KEVUN
Aircraft B77L/H-SDE1E2E3FGHIJ2J3J4J5M1RWXY/LB1D1

Departure

Time 2026-05-04 14:53
Airport São Paulo/Guarulhos–Governor André Franco Montoro International Airport (SBGR)

Arrival

Time 2026-05-04 15:30
Airport Santos Dumont Airport (SBRJ)
Time Latitude Longitude Altitude Speed Heading
2026-05-04 14:03 -23.42403 -46.45996 2474 ft 0 kts 345°
2026-05-04 14:27 -23.42412 -46.45993 2474 ft 4 kts 343°
2026-05-04 14:27 -23.42437 -46.45983 2476 ft 4 kts 330°
2026-05-04 14:28 -23.42458 -46.45966 2477 ft 4 kts 306°
2026-05-04 14:28 -23.42466 -46.45943 2474 ft 3 kts 256°
2026-05-04 14:28 -23.42466 -46.45940 2477 ft 2 kts 253°
2026-05-04 14:32 -23.42475 -46.45954 2474 ft 6 kts 229°
2026-05-04 14:32 -23.42516 -46.45998 2478 ft 8 kts 227°
2026-05-04 14:33 -23.42547 -46.46047 2478 ft 8 kts 245°
2026-05-04 14:33 -23.42567 -46.46104 2477 ft 8 kts 251°
2026-05-04 14:33 -23.42583 -46.46162 2477 ft 8 kts 254°
2026-05-04 14:33 -23.42598 -46.46220 2478 ft 8 kts 254°
2026-05-04 14:34 -23.42605 -46.46246 2478 ft 2 kts 253°
2026-05-04 14:34 -23.42606 -46.46249 2478 ft 0 kts 253°
2026-05-04 14:34 -23.42606 -46.46250 2478 ft 1 kts 253°
2026-05-04 14:35 -23.42607 -46.46254 2480 ft 1 kts 253°
2026-05-04 14:35 -23.42609 -46.46259 2478 ft 1 kts 253°
2026-05-04 14:35 -23.42610 -46.46264 2477 ft 1 kts 253°
2026-05-04 14:35 -23.42611 -46.46269 2476 ft 1 kts 253°
2026-05-04 14:36 -23.42614 -46.46277 2477 ft 2 kts 253°
2026-05-04 14:36 -23.42620 -46.46300 2477 ft 4 kts 253°
2026-05-04 14:36 -23.42627 -46.46327 2476 ft 4 kts 253°
2026-05-04 14:36 -23.42635 -46.46354 2478 ft 4 kts 253°
2026-05-04 14:37 -23.42642 -46.46382 2477 ft 4 kts 253°
2026-05-04 14:37 -23.42650 -46.46409 2479 ft 4 kts 253°
2026-05-04 14:37 -23.42657 -46.46437 2478 ft 4 kts 253°
2026-05-04 14:37 -23.42665 -46.46464 2480 ft 4 kts 253°
2026-05-04 14:38 -23.42673 -46.46492 2477 ft 4 kts 253°
2026-05-04 14:38 -23.42680 -46.46519 2479 ft 4 kts 253°
2026-05-04 14:38 -23.42688 -46.46546 2477 ft 4 kts 253°
2026-05-04 14:38 -23.42696 -46.46574 2478 ft 4 kts 253°
2026-05-04 14:39 -23.42704 -46.46601 2479 ft 4 kts 253°
2026-05-04 14:39 -23.42711 -46.46629 2480 ft 4 kts 255°
2026-05-04 14:39 -23.42718 -46.46657 2479 ft 4 kts 254°
2026-05-04 14:40 -23.42748 -46.46771 2478 ft 10 kts 253°
2026-05-04 14:40 -23.42768 -46.46843 2477 ft 10 kts 253°
2026-05-04 14:40 -23.42787 -46.46915 2481 ft 10 kts 255°
2026-05-04 14:40 -23.42806 -46.46987 2477 ft 10 kts 254°
2026-05-04 14:41 -23.42826 -46.47060 2479 ft 10 kts 253°
2026-05-04 14:41 -23.42845 -46.47132 2479 ft 10 kts 253°
2026-05-04 14:41 -23.42884 -46.47277 2476 ft 10 kts 253°
2026-05-04 14:42 -23.42925 -46.47425 2477 ft 12 kts 253°
2026-05-04 14:42 -23.42948 -46.47510 2477 ft 12 kts 253°
2026-05-04 14:42 -23.42971 -46.47596 2477 ft 12 kts 253°
2026-05-04 14:43 -23.42994 -46.47682 2477 ft 12 kts 253°
2026-05-04 14:43 -23.43017 -46.47767 2477 ft 12 kts 253°
2026-05-04 14:43 -23.43040 -46.47853 2477 ft 12 kts 253°
2026-05-04 14:43 -23.43063 -46.47939 2478 ft 12 kts 254°
2026-05-04 14:44 -23.43086 -46.48025 2478 ft 12 kts 253°
2026-05-04 14:44 -23.43109 -46.48109 2478 ft 12 kts 253°
2026-05-04 14:44 -23.43133 -46.48195 2478 ft 12 kts 253°
2026-05-04 14:44 -23.43156 -46.48280 2479 ft 12 kts 253°
2026-05-04 14:45 -23.43179 -46.48352 2479 ft 8 kts 239°
2026-05-04 14:45 -23.43207 -46.48375 2479 ft 0 kts 201°
2026-05-04 14:46 -23.43218 -46.48378 2479 ft 6 kts 190°
2026-05-04 14:46 -23.43272 -46.48371 2479 ft 8 kts 167°
2026-05-04 14:46 -23.43289 -46.48366 2479 ft 0 kts 166°
2026-05-04 14:49 -23.43300 -46.48363 2479 ft 2 kts 166°
2026-05-04 14:49 -23.43313 -46.48359 2479 ft 2 kts 166°
2026-05-04 14:49 -23.43328 -46.48355 2479 ft 2 kts 166°
2026-05-04 14:49 -23.43339 -46.48352 2479 ft 3 kts 165°
2026-05-04 14:50 -23.43359 -46.48346 2479 ft 3 kts 163°
2026-05-04 14:50 -23.43384 -46.48335 2479 ft 4 kts 152°
2026-05-04 14:50 -23.43409 -46.48308 2478 ft 6 kts 120°
2026-05-04 14:50 -23.43409 -46.48265 2478 ft 6 kts 78°
2026-05-04 14:51 -23.43407 -46.48259 2478 ft 0 kts 76°
2026-05-04 14:51 -23.43407 -46.48256 2478 ft 1 kts 76°
2026-05-04 14:52 -23.43360 -46.48070 2479 ft 60 kts 74°
2026-05-04 14:52 -23.43174 -46.47394 2476 ft 124 kts 73°
2026-05-04 14:52 -23.42871 -46.46304 2479 ft 174 kts 74°
2026-05-04 14:52 -23.42545 -46.45017 2950 ft 174 kts 78°
2026-05-04 14:53 -23.42282 -46.43713 3430 ft 178 kts 72°
2026-05-04 14:53 -23.42100 -46.43140 3653 ft 182 kts 68°
2026-05-04 14:53 -23.41639 -46.41819 4123 ft 188 kts 70°
2026-05-04 14:53 -23.41206 -46.40414 4425 ft 206 kts 70°
2026-05-04 14:54 -23.40740 -46.38868 4672 ft 231 kts 69°
2026-05-04 14:54 -23.40223 -46.37103 4865 ft 255 kts 75°
2026-05-04 14:54 -23.40278 -46.35119 5226 ft 274 kts 107°
2026-05-04 14:54 -23.40958 -46.33137 5807 ft 285 kts 109°
2026-05-04 14:55 -23.41639 -46.31078 6571 ft 291 kts 108°
2026-05-04 14:55 -23.42321 -46.28997 7352 ft 293 kts 109°
2026-05-04 14:55 -23.43010 -46.26897 8094 ft 296 kts 109°
2026-05-04 14:55 -23.43703 -46.24776 8901 ft 299 kts 109°
2026-05-04 14:56 -23.44270 -46.22580 9663 ft 303 kts 102°
2026-05-04 14:56 -23.44665 -46.20315 10400 ft 306 kts 101°
2026-05-04 14:56 -23.45029 -46.18005 10829 ft 323 kts 101°
2026-05-04 14:56 -23.45428 -46.15499 11008 ft 348 kts 101°
2026-05-04 14:57 -23.45868 -46.12806 11183 ft 374 kts 101°
2026-05-04 14:57 -23.46346 -46.09949 11577 ft 391 kts 101°
2026-05-04 14:57 -23.46848 -46.07004 12260 ft 400 kts 102°
2026-05-04 14:57 -23.47364 -46.04003 13022 ft 403 kts 102°
2026-05-04 14:58 -23.47886 -46.00978 13211 ft 408 kts 102°
2026-05-04 14:58 -23.48409 -45.97943 13209 ft 408 kts 102°
2026-05-04 14:58 -23.48932 -45.94909 13209 ft 408 kts 102°
2026-05-04 14:58 -23.49460 -45.91859 13287 ft 411 kts 102°
2026-05-04 14:59 -23.50000 -45.88778 14033 ft 416 kts 102°
2026-05-04 14:59 -23.50547 -45.85671 14834 ft 419 kts 102°
2026-05-04 14:59 -23.51655 -45.79361 16287 ft 430 kts 102°
2026-05-04 15:00 -23.52220 -45.76139 16917 ft 437 kts 102°
2026-05-04 15:00 -23.52795 -45.72860 17545 ft 445 kts 102°
2026-05-04 15:00 -23.53377 -45.69524 18198 ft 450 kts 102°
2026-05-04 15:01 -23.54548 -45.62791 19420 ft 459 kts 102°
2026-05-04 15:01 -23.55144 -45.59356 20064 ft 462 kts 102°
2026-05-04 15:01 -23.55744 -45.55900 20664 ft 466 kts 103°
2026-05-04 15:01 -23.56348 -45.52417 21181 ft 468 kts 103°
2026-05-04 15:02 -23.56947 -45.48910 21187 ft 469 kts 101°
2026-05-04 15:02 -23.57131 -45.45359 21203 ft 473 kts 85°
2026-05-04 15:02 -23.56473 -45.41852 21217 ft 474 kts 76°
2026-05-04 15:02 -23.55639 -45.38361 21213 ft 476 kts 76°
2026-05-04 15:03 -23.54820 -45.34863 21212 ft 476 kts 76°
2026-05-04 15:03 -23.54028 -45.31360 21193 ft 476 kts 77°
2026-05-04 15:03 -23.53261 -45.27843 21214 ft 476 kts 77°
2026-05-04 15:03 -23.52510 -45.24334 21203 ft 476 kts 77°
2026-05-04 15:04 -23.51763 -45.20813 21211 ft 475 kts 77°
2026-05-04 15:04 -23.51031 -45.17357 21216 ft 475 kts 77°
2026-05-04 15:04 -23.50285 -45.13846 21206 ft 474 kts 77°
2026-05-04 15:04 -23.49540 -45.10349 21199 ft 474 kts 77°
2026-05-04 15:05 -23.48795 -45.06857 21201 ft 473 kts 77°
2026-05-04 15:05 -23.48048 -45.03363 21193 ft 472 kts 77°
2026-05-04 15:05 -23.47304 -44.99882 21197 ft 472 kts 77°
2026-05-04 15:05 -23.46557 -44.96401 21200 ft 471 kts 77°
2026-05-04 15:06 -23.45807 -44.92929 21190 ft 471 kts 77°
2026-05-04 15:06 -23.45044 -44.89471 21185 ft 466 kts 77°
2026-05-04 15:06 -23.44291 -44.86097 21170 ft 450 kts 76°
2026-05-04 15:07 -23.42856 -44.79677 21199 ft 430 kts 76°
2026-05-04 15:07 -23.42153 -44.76521 21201 ft 429 kts 76°
2026-05-04 15:07 -23.41447 -44.73355 20937 ft 432 kts 76°
2026-05-04 15:07 -23.40736 -44.70164 20486 ft 432 kts 76°
2026-05-04 15:08 -23.40035 -44.67026 20060 ft 430 kts 76°
2026-05-04 15:08 -23.39332 -44.63875 19634 ft 427 kts 76°
2026-05-04 15:08 -23.38630 -44.60736 19206 ft 424 kts 76°
2026-05-04 15:08 -23.37933 -44.57620 18771 ft 422 kts 76°
2026-05-04 15:09 -23.37241 -44.54529 18303 ft 420 kts 76°
2026-05-04 15:09 -23.36750 -44.52339 17976 ft 419 kts 76°
2026-05-04 15:09 -23.36060 -44.49267 17533 ft 415 kts 76°
2026-05-04 15:10 -23.34702 -44.43222 16677 ft 408 kts 76°
2026-05-04 15:10 -23.33878 -44.40320 16235 ft 395 kts 67°
2026-05-04 15:10 -23.31567 -44.34997 15441 ft 389 kts 62°
2026-05-04 15:11 -23.30347 -44.32362 15041 ft 387 kts 63°
2026-05-04 15:11 -23.29173 -44.29768 14629 ft 376 kts 63°
2026-05-04 15:11 -23.28043 -44.27209 14245 ft 374 kts 64°
2026-05-04 15:11 -23.26929 -44.24647 13808 ft 374 kts 64°
2026-05-04 15:12 -23.25829 -44.22099 13378 ft 372 kts 64°
2026-05-04 15:12 -23.24735 -44.19559 12978 ft 369 kts 64°
2026-05-04 15:12 -23.23648 -44.17032 12574 ft 367 kts 64°
2026-05-04 15:12 -23.22569 -44.14528 12184 ft 365 kts 64°
2026-05-04 15:13 -23.21494 -44.12039 11801 ft 363 kts 64°
2026-05-04 15:13 -23.20424 -44.09560 11407 ft 361 kts 64°
2026-05-04 15:13 -23.19351 -44.07106 11099 ft 356 kts 63°
2026-05-04 15:13 -23.18253 -44.04716 10923 ft 348 kts 62°
2026-05-04 15:14 -23.17194 -44.02434 10700 ft 327 kts 62°
2026-05-04 15:14 -23.16205 -44.00294 10529 ft 306 kts 62°
2026-05-04 15:14 -23.15298 -43.98288 10381 ft 297 kts 63°
2026-05-04 15:14 -23.14424 -43.96254 10260 ft 297 kts 64°
2026-05-04 15:15 -23.13560 -43.94218 10100 ft 297 kts 64°
2026-05-04 15:15 -23.12695 -43.92180 9936 ft 297 kts 63°
2026-05-04 15:15 -23.11830 -43.90149 9763 ft 296 kts 63°
2026-05-04 15:16 -23.10096 -43.86086 9430 ft 295 kts 63°
2026-05-04 15:16 -23.09234 -43.84070 9289 ft 294 kts 63°
2026-05-04 15:16 -23.07513 -43.80051 8965 ft 292 kts 63°
2026-05-04 15:17 -23.06654 -43.78047 8810 ft 291 kts 63°
2026-05-04 15:17 -23.04950 -43.74075 8498 ft 289 kts 63°
2026-05-04 15:17 -23.04106 -43.72107 8342 ft 287 kts 63°
2026-05-04 15:18 -23.03273 -43.70168 8191 ft 286 kts 63°
2026-05-04 15:18 -23.02422 -43.68210 7929 ft 288 kts 63°
2026-05-04 15:18 -23.01562 -43.66246 7672 ft 288 kts 63°
2026-05-04 15:19 -22.99855 -43.62346 7232 ft 274 kts 63°
2026-05-04 15:19 -22.99068 -43.60550 6993 ft 253 kts 62°
2026-05-04 15:19 -22.97625 -43.57268 6546 ft 234 kts 62°
2026-05-04 15:20 -22.96915 -43.55657 6428 ft 240 kts 62°
2026-05-04 15:20 -22.96190 -43.54018 6300 ft 241 kts 61°
2026-05-04 15:20 -22.95473 -43.52387 6146 ft 238 kts 62°
2026-05-04 15:20 -22.94779 -43.50782 5948 ft 235 kts 66°
2026-05-04 15:21 -22.94277 -43.49113 5752 ft 235 kts 72°
2026-05-04 15:21 -22.93866 -43.47431 5503 ft 226 kts 72°
2026-05-04 15:21 -22.93094 -43.44243 5094 ft 214 kts 71°
2026-05-04 15:22 -22.92705 -43.42670 4928 ft 217 kts 73°
2026-05-04 15:22 -22.92319 -43.41124 4668 ft 206 kts 72°
2026-05-04 15:22 -22.91601 -43.38279 4318 ft 182 kts 71°
2026-05-04 15:23 -22.91278 -43.37003 4070 ft 170 kts 72°
2026-05-04 15:23 -22.90972 -43.35800 3698 ft 160 kts 71°
2026-05-04 15:23 -22.90684 -43.34670 3299 ft 154 kts 73°
2026-05-04 15:23 -22.90408 -43.33598 2878 ft 140 kts 73°
2026-05-04 15:24 -22.89886 -43.31549 2244 ft 143 kts 74°
2026-05-04 15:24 -22.89364 -43.29519 2036 ft 132 kts 73°
2026-05-04 15:25 -22.89119 -43.28561 2002 ft 131 kts 73°
2026-05-04 15:25 -22.88871 -43.27603 2001 ft 133 kts 75°
2026-05-04 15:25 -22.88631 -43.26590 1996 ft 138 kts 84°
2026-05-04 15:26 -22.89340 -43.24746 1896 ft 110 kts 99°
2026-05-04 15:26 -22.89557 -43.23851 1469 ft 142 kts 109°
2026-05-04 15:26 -22.90231 -43.21998 2004 ft 131 kts 110°
2026-05-04 15:27 -22.90584 -43.21122 1961 ft 127 kts 118°
2026-05-04 15:27 -22.91949 -43.19673 1748 ft 142 kts 138°
2026-05-04 15:28 -22.93697 -43.18628 809 ft 135 kts 147°
2026-05-04 15:28 -22.94337 -43.17991 391 ft 122 kts 112°
2026-05-04 15:28 -22.93821 -43.16552 226 ft 134 kts
2026-05-04 15:29 -22.92969 -43.16364 212 ft 129 kts 16°
2026-05-04 15:30 -22.90810 -43.16311 32 ft 3 kts 334°
2026-05-04 15:30 -22.90715 -43.16370 33 ft 0 kts 322°
2026-05-04 15:31 -22.90668 -43.16448 34 ft 11 kts 288°
2026-05-04 15:31 -22.90686 -43.16519 34 ft 11 kts 214°
2026-05-04 15:32 -22.90838 -43.16540 34 ft 1 kts 181°
2026-05-04 15:33 -22.90877 -43.16543 34 ft 3 kts 181°
2026-05-04 15:34 -22.90917 -43.16544 34 ft 1 kts 184°
2026-05-04 15:34 -22.90926 -43.16546 34 ft 1 kts 197°
2026-05-04 15:34 -22.90940 -43.16560 34 ft 1 kts 232°
2026-05-04 15:35 -22.90947 -43.16579 34 ft 1 kts 252°
2026-05-04 15:35 -22.90950 -43.16589 34 ft 1 kts 254°
2026-05-04 15:35 -22.90951 -43.16599 34 ft 1 kts 257°
2026-05-04 15:36 -22.90952 -43.16604 34 ft 0 kts 259°
2026-05-04 15:37 -22.90952 -43.16605 34 ft 1 kts 259°
2026-05-04 15:37 -22.90952 -43.16604 34 ft 2 kts 259°
2026-05-04 15:37 -22.90951 -43.16599 34 ft 0 kts 260°